| time (UTC) | temp F | wind direction | speed knots | gust knots | rain 1hr in | rain 24hr in | rain mn in | humidity % | barometer mb |
| 20260902161335 | 88 | 342 | 3.5 | 5.2 | 0.00 | 0.00 | 0.00 | 66 | 1017.7 |
| 20260902160356 | 87 | 208 | 0.9 | 1.7 | 0.00 | 0.00 | 0.00 | 69 | 1017.5 |
| 20260902155326 | 87 | 208 | 0.9 | 2.6 | 0.00 | 0.00 | 0.00 | 69 | 1017.5 |
| 20260902154334 | 87 | 209 | 1.7 | 3.5 | 0.00 | 0.00 | 0.00 | 69 | 1017.4 |
| 20260902153314 | 88 | 215 | 1.7 | 3.5 | 0.00 | 0.00 | 0.00 | 68 | 1017.1 |
| 20260902152315 | 87 | 171 | 3.5 | 6.1 | 0.00 | 0.00 | 0.00 | 68 | 1016.9 |
| 20260902151315 | 87 | 157 | 2.6 | 7.0 | 0.00 | 0.00 | 0.00 | 69 | 1016.9 |
| 20260902150315 | 87 | 166 | 2.6 | 6.1 | 0.00 | 0.00 | 0.00 | 70 | 1017.0 |
| 20260902145314 | 87 | 171 | 1.7 | 3.5 | 0.00 | 0.00 | 0.00 | 67 | 1016.9 |
| 20260902144358 | 86 | 156 | 2.6 | 5.2 | 0.00 | 0.00 | 0.00 | 69 | 1016.9 |
| 20260902143313 | 86 | 185 | 3.5 | 6.1 | 0.00 | 0.00 | 0.00 | 68 | 1016.9 |
| 20260902142336 | 85 | 138 | 0.9 | 6.1 | 0.00 | 0.00 | 0.00 | 70 | 1017.0 |
| 20260902141314 | 85 | 168 | 2.6 | 7.0 | 0.00 | 0.00 | 0.00 | 70 | 1017.0 |
| 20260902140337 | 84 | 139 | 2.6 | 4.3 | 0.00 | 0.00 | 0.00 | 72 | 1016.8 |
| 20260902135313 | 83 | 175 | 2.6 | 4.3 | 0.00 | 0.00 | 0.00 | 71 | 1016.8 |
| 20260902134312 | 83 | 177 | 0.9 | 6.1 | 0.00 | 0.00 | 0.00 | 74 | 1016.7 |
| 20260902133312 | 82 | 209 | 1.7 | 5.2 | 0.00 | 0.00 | 0.00 | 74 | 1017.0 |
| 20260902132338 | 82 | 190 | 2.6 | 5.2 | 0.00 | 0.00 | 0.00 | 76 | 1017.0 |
| 20260902131333 | 81 | 235 | 2.6 | 5.2 | 0.00 | 0.00 | 0.00 | 79 | 1017.0 |
| 20260902130338 | 80 | 263 | 2.6 | 5.2 | 0.00 | 0.00 | 0.00 | 82 | 1017.0 |
| 20260902125319 | 79 | 236 | 1.7 | 3.5 | 0.00 | 0.00 | 0.00 | 86 | 1016.9 |
| 20260902124323 | 77 | 271 | 1.7 | 2.6 | 0.00 | 0.00 | 0.00 | 90 | 1016.8 |
| 20260902123312 | 75 | 163 | 0.9 | 1.7 | 0.00 | 0.00 | 0.00 | 92 | 1016.6 |
| 20260902122316 | 74 | 163 | 0.0 | 1.7 | 0.00 | 0.00 | 0.00 | 93 | 1016.5 |
| 20260902121336 | 73 | 163 | 0.0 | 0.9 | 0.00 | 0.00 | 0.00 | 94 | 1016.6 |
| 20260902120314 | 73 | 163 | 0.0 | 0.0 | 0.00 | 0.00 | 0.00 | 94 | 1016.5 |
| 20260902115314 | 72 | 163 | 0.0 | 0.0 | 0.00 | 0.00 | 0.00 | 94 | 1016.4 |
| 20260902114317 | 72 | 163 | 0.9 | 1.7 | 0.00 | 0.00 | 0.00 | 94 | 1016.4 |
| 20260902113336 | 72 | 163 | 0.0 | 0.9 | 0.00 | 0.00 | 0.00 | 94 | 1016.3 |
| 20260902112315 | 72 | 163 | 0.0 | 0.0 | 0.00 | 0.00 | 0.00 | 94 | 1016.2 |
| 20260902111338 | 71 | 163 | 0.0 | 1.7 | 0.00 | 0.00 | 0.00 | 93 | 1016.4 |
| 20260902110313 | 71 | 163 | 0.9 | 3.5 | 0.00 | 0.00 | 0.00 | 93 | 1016.5 |
| 20260902105318 | 71 | 150 | 1.7 | 3.5 | 0.00 | 0.00 | 0.00 | 93 | 1016.6 |
| 20260902104328 | 72 | 196 | 0.9 | 2.6 | 0.00 | 0.00 | 0.00 | 93 | 1016.8 |
| 20260902103315 | 72 | 188 | 0.9 | 2.6 | 0.00 | 0.00 | 0.00 | 93 | 1016.6 |
| 20260902102314 | 72 | 108 | 0.9 | 1.7 | 0.00 | 0.00 | 0.00 | 93 | 1016.6 |
| 20260902101312 | 72 | 108 | 0.0 | 0.9 | 0.00 | 0.00 | 0.00 | 93 | 1016.6 |
| 20260902100319 | 72 | 108 | 0.0 | 0.9 | 0.00 | 0.00 | 0.00 | 93 | 1016.5 |
| 20260902095330 | 72 | 108 | 0.0 | 0.9 | 0.00 | 0.00 | 0.00 | 93 | 1016.6 |
| 20260902094311 | 72 | 108 | 0.0 | 0.0 | 0.00 | 0.00 | 0.00 | 93 | 1016.5 |
| 20260902093330 | 72 | 108 | 0.9 | 2.6 | 0.00 | 0.00 | 0.00 | 93 | 1016.3 |
| 20260902092342 | 72 | 108 | 0.0 | 0.0 | 0.00 | 0.00 | 0.00 | 93 | 1016.2 |
| 20260902091321 | 72 | 108 | 0.0 | 0.9 | 0.00 | 0.00 | 0.00 | 93 | 1016.3 |
| 20260902090321 | 72 | 108 | 0.0 | 0.0 | 0.00 | 0.00 | 0.00 | 92 | 1016.3 |
| 20260902085318 | 72 | 108 | 0.0 | 0.0 | 0.00 | 0.00 | 0.00 | 92 | 1016.2 |
| 20260902084321 | 72 | 108 | 0.0 | 0.9 | 0.00 | 0.00 | 0.00 | 92 | 1016.1 |
| 20260902083356 | 72 | 108 | 0.0 | 0.9 | 0.00 | 0.00 | 0.00 | 91 | 1016.2 |
| 20260902082320 | 72 | 108 | 0.0 | 0.9 | 0.00 | 0.00 | 0.00 | 91 | 1016.2 |
| 20260902081341 | 72 | 108 | 0.0 | 0.9 | 0.00 | 0.00 | 0.00 | 91 | 1016.2 |
| 20260902080317 | 72 | 108 | 0.0 | 0.9 | 0.00 | 0.00 | 0.00 | 91 | 1016.2 |
| 20260902075317 | 72 | 108 | 0.0 | 1.7 | 0.00 | 0.00 | 0.00 | 90 | 1016.2 |
| 20260902074317 | 73 | 108 | 0.0 | 0.9 | 0.00 | 0.00 | 0.00 | 90 | 1016.0 |
| 20260902073335 | 73 | 108 | 0.0 | 0.9 | 0.00 | 0.00 | 0.00 | 90 | 1016.0 |
| 20260902072315 | 73 | 108 | 0.9 | 1.7 | 0.00 | 0.00 | 0.00 | 89 | 1016.0 |
| 20260902071340 | 73 | 108 | 0.9 | 1.7 | 0.00 | 0.00 | 0.00 | 89 | 1015.8 |
| 20260902070338 | 73 | 108 | 0.0 | 1.7 | 0.00 | 0.00 | 0.00 | 89 | 1015.9 |
| 20260902065337 | 73 | 181 | 0.9 | 1.7 | 0.00 | 0.00 | 0.00 | 89 | 1015.8 |
| 20260902064339 | 73 | 181 | 0.0 | 1.7 | 0.00 | 0.00 | 0.00 | 89 | 1015.8 |
| 20260902063323 | 73 | 181 | 0.9 | 1.7 | 0.00 | 0.00 | 0.00 | 89 | 1015.8 |
| 20260902062318 | 74 | 181 | 0.0 | 1.7 | 0.00 | 0.00 | 0.00 | 88 | 1015.7 |
| 20260902061334 | 74 | 159 | 0.9 | 1.7 | 0.00 | 0.00 | 0.00 | 88 | 1015.6 |
| 20260902060318 | 74 | 159 | 0.9 | 1.7 | 0.00 | 0.00 | 0.00 | 87 | 1015.8 |
| 20260902055317 | 74 | 294 | 0.0 | 2.6 | 0.00 | 0.00 | 0.00 | 87 | 1015.7 |
| 20260902054317 | 74 | 125 | 0.0 | 1.7 | 0.00 | 0.00 | 0.00 | 86 | 1015.7 |
| 20260902053317 | 75 | 125 | 0.9 | 1.7 | 0.00 | 0.00 | 0.00 | 86 | 1015.9 |
| 20260902052318 | 75 | 125 | 1.7 | 2.6 | 0.00 | 0.00 | 0.00 | 85 | 1016.1 |
| 20260902051333 | 75 | 125 | 0.0 | 1.7 | 0.00 | 0.00 | 0.00 | 84 | 1016.1 |
| 20260902050337 | 76 | 125 | 0.9 | 2.6 | 0.00 | 0.00 | 0.00 | 84 | 1016.2 |
| 20260902045337 | 76 | 125 | 0.9 | 1.7 | 0.00 | 0.00 | 0.00 | 83 | 1016.3 |
| 20260902044339 | 76 | 125 | 0.9 | 1.7 | 0.00 | 0.00 | 0.00 | 82 | 1016.1 |
| 20260902043337 | 77 | 125 | 0.0 | 1.7 | 0.00 | 0.00 | 0.00 | 81 | 1015.9 |
| 20260902042333 | 77 | 125 | 0.0 | 2.6 | 0.00 | 0.00 | 0.00 | 81 | 1015.6 |
| 20260902041318 | 77 | 125 | 0.0 | 1.7 | 0.00 | 0.00 | 0.00 | 80 | 1015.7 |
| 20260902040337 | 77 | 125 | 0.9 | 1.7 | 0.00 | 0.00 | 0.00 | 80 | 1015.8 |
| 20260902035335 | 77 | 125 | 1.7 | 2.6 | 0.00 | 0.00 | 0.00 | 79 | 1015.6 |
| 20260902034339 | 77 | 125 | 1.7 | 2.6 | 0.00 | 0.00 | 0.00 | 79 | 1015.5 |
| 20260902033330 | 77 | 125 | 0.9 | 1.7 | 0.00 | 0.00 | 0.00 | 79 | 1015.4 |
| 20260902032328 | 78 | 125 | 0.9 | 1.7 | 0.00 | 0.00 | 0.00 | 79 | 1015.2 |
| 20260902031338 | 78 | 125 | 0.0 | 2.6 | 0.00 | 0.00 | 0.00 | 78 | 1015.0 |
| 20260902030335 | 78 | 125 | 0.9 | 2.6 | 0.00 | 0.00 | 0.00 | 78 | 1015.0 |
| 20260902025320 | 78 | 125 | 0.9 | 3.5 | 0.00 | 0.00 | 0.00 | 78 | 1014.9 |
| 20260902024333 | 78 | 235 | 0.9 | 2.6 | 0.00 | 0.00 | 0.00 | 78 | 1014.7 |
| 20260902023318 | 78 | 98 | 1.7 | 2.6 | 0.00 | 0.00 | 0.00 | 78 | 1014.4 |
| 20260902022320 | 78 | 152 | 0.9 | 4.3 | 0.00 | 0.00 | 0.00 | 78 | 1014.3 |
| 20260902021336 | 78 | 113 | 0.0 | 3.5 | 0.00 | 0.00 | 0.00 | 78 | 1014.4 |
| 20260902020318 | 79 | 128 | 0.9 | 2.6 | 0.00 | 0.00 | 0.00 | 77 | 1014.4 |
| 20260902015318 | 79 | 128 | 1.7 | 2.6 | 0.00 | 0.00 | 0.00 | 76 | 1014.5 |
| 20260902014320 | 80 | 128 | 0.9 | 1.7 | 0.00 | 0.00 | 0.00 | 74 | 1014.4 |
| 20260902013315 | 81 | 128 | 0.9 | 2.6 | 0.00 | 0.00 | 0.00 | 72 | 1014.4 |
| 20260902012315 | 83 | 128 | 1.7 | 2.6 | 0.00 | 0.00 | 0.00 | 70 | 1014.5 |
| 20260902011334 | 83 | 284 | 1.7 | 2.6 | 0.00 | 0.00 | 0.00 | 67 | 1014.6 |
| 20260902010334 | 84 | 272 | 0.9 | 5.2 | 0.00 | 0.00 | 0.00 | 66 | 1014.3 |
| 20260902005318 | 83 | 284 | 3.5 | 9.6 | 0.00 | 0.00 | 0.00 | 66 | 1013.7 |
| 20260902004338 | 84 | 244 | 1.7 | 3.5 | 0.00 | 0.00 | 0.00 | 67 | 1013.4 |
| 20260902003337 | 85 | 293 | 0.9 | 8.7 | 0.00 | 0.00 | 0.00 | 65 | 1013.3 |
| 20260902002340 | 85 | 265 | 3.5 | 8.7 | 0.00 | 0.00 | 0.00 | 65 | 1013.3 |
| 20260902001314 | 85 | 300 | 4.3 | 7.8 | 0.00 | 0.00 | 0.00 | 65 | 1013.1 |
| 20260902000331 | 85 | 257 | 1.7 | 7.8 | 0.00 | 0.00 | 0.00 | 66 | 1013.1 |
| 20260901235315 | 86 | 238 | 1.7 | 3.5 | 0.00 | 0.00 | 0.00 | 65 | 1013.0 |
| 20260901234335 | 86 | 241 | 1.7 | 4.3 | 0.00 | 0.00 | 0.00 | 64 | 1012.8 |
| 20260901233315 | 87 | 229 | 1.7 | 7.0 | 0.00 | 0.00 | 0.00 | 63 | 1012.7 |
| 20260901232315 | 88 | 250 | 2.6 | 6.1 | 0.00 | 0.00 | 0.00 | 62 | 1012.7 |
| 20260901231317 | 89 | 236 | 2.6 | 4.3 | 0.00 | 0.00 | 0.00 | 62 | 1012.6 |
| 20260901230355 | 90 | 246 | 1.7 | 7.8 | 0.00 | 0.00 | 0.00 | 59 | 1012.7 |
| 20260901225314 | 91 | 302 | 2.6 | 8.7 | 0.00 | 0.00 | 0.00 | 57 | 1012.7 |
| 20260901224339 | 91 | 315 | 1.7 | 7.0 | 0.00 | 0.00 | 0.00 | 56 | 1012.7 |
| 20260901223316 | 92 | 330 | 3.5 | 4.3 | 0.00 | 0.00 | 0.00 | 58 | 1012.7 |
| 20260901222340 | 92 | 304 | 1.7 | 6.1 | 0.00 | 0.00 | 0.00 | 55 | 1012.7 |
| 20260901221322 | 92 | 281 | 1.7 | 6.1 | 0.00 | 0.00 | 0.00 | 57 | 1012.7 |
| 20260901220320 | 91 | 297 | 2.6 | 4.3 | 0.00 | 0.00 | 0.00 | 56 | 1012.7 |
| 20260901215317 | 91 | 252 | 1.7 | 7.0 | 0.00 | 0.00 | 0.00 | 56 | 1012.7 |
| 20260901214316 | 92 | 309 | 3.5 | 7.8 | 0.00 | 0.00 | 0.00 | 55 | 1012.7 |
| 20260901213332 | 92 | 309 | 2.6 | 5.2 | 0.00 | 0.00 | 0.00 | 56 | 1012.9 |
| 20260901212321 | 91 | 288 | 4.3 | 8.7 | 0.00 | 0.00 | 0.00 | 54 | 1012.9 |
| 20260901211314 | 91 | 280 | 3.5 | 8.7 | 0.00 | 0.00 | 0.00 | 54 | 1012.9 |
| 20260901210338 | 92 | 280 | 5.2 | 11.3 | 0.00 | 0.00 | 0.00 | 53 | 1012.8 |
| 20260901205313 | 92 | 277 | 4.3 | 9.6 | 0.00 | 0.00 | 0.00 | 54 | 1012.9 |
| 20260901204322 | 93 | 322 | 3.5 | 8.7 | 0.00 | 0.00 | 0.00 | 52 | 1012.8 |
| 20260901203316 | 94 | 265 | 4.3 | 11.3 | 0.00 | 0.00 | 0.00 | 52 | 1012.9 |
| 20260901202329 | 94 | 315 | 7.0 | 11.3 | 0.00 | 0.00 | 0.00 | 50 | 1012.9 |
| 20260901201334 | 95 | 302 | 5.2 | 8.7 | 0.00 | 0.00 | 0.00 | 54 | 1013.0 |
| 20260901200335 | 95 | 316 | 5.2 | 10.4 | 0.00 | 0.00 | 0.00 | 51 | 1013.0 |
| 20260901195322 | 95 | 293 | 5.2 | 9.6 | 0.00 | 0.00 | 0.00 | 50 | 1013.0 |
| 20260901194317 | 95 | 269 | 5.2 | 10.4 | 0.00 | 0.00 | 0.00 | 51 | 1013.1 |
| 20260901193338 | 94 | 254 | 2.6 | 8.7 | 0.00 | 0.00 | 0.00 | 54 | 1013.2 |
| 20260901192337 | 93 | 257 | 1.7 | 8.7 | 0.00 | 0.00 | 0.00 | 54 | 1013.3 |
| 20260901191314 | 93 | 292 | 4.3 | 8.7 | 0.00 | 0.00 | 0.00 | 52 | 1013.5 |
| 20260901190315 | 94 | 297 | 7.0 | 10.4 | 0.00 | 0.00 | 0.00 | 52 | 1013.7 |
| 20260901185314 | 94 | 306 | 7.0 | 11.3 | 0.00 | 0.00 | 0.00 | 52 | 1013.7 |
| 20260901184321 | 93 | 309 | 4.3 | 8.7 | 0.00 | 0.00 | 0.00 | 54 | 1013.9 |
| 20260901183315 | 94 | 298 | 0.9 | 12.2 | 0.00 | 0.00 | 0.00 | 57 | 1013.9 |
| 20260901182358 | 93 | 320 | 3.5 | 7.0 | 0.00 | 0.00 | 0.00 | 61 | 1014.1 |
| 20260901181336 | 93 | 291 | 1.7 | 8.7 | 0.00 | 0.00 | 0.00 | 59 | 1014.2 |
| 20260901180314 | 92 | 327 | 4.3 | 7.8 | 0.00 | 0.00 | 0.00 | 62 | 1014.3 |
| 20260901175339 | 92 | 238 | 2.6 | 7.0 | 0.00 | 0.00 | 0.00 | 62 | 1014.3 |
| 20260901174317 | 90 | 180 | 2.6 | 6.1 | 0.00 | 0.00 | 0.00 | 65 | 1014.4 |
| 20260901173337 | 91 | 241 | 3.5 | 8.7 | 0.00 | 0.00 | 0.00 | 64 | 1014.2 |
| 20260901172358 | 89 | 202 | 4.3 | 7.0 | 0.00 | 0.00 | 0.00 | 68 | 1014.3 |
| 20260901171338 | 89 | 161 | 2.6 | 4.3 | 0.00 | 0.00 | 0.00 | 68 | 1014.4 |
| 20260901170317 | 88 | 182 | 2.6 | 6.1 | 0.00 | 0.00 | 0.00 | 69 | 1014.5 |
| 20260901165339 | 88 | 229 | 1.7 | 4.3 | 0.00 | 0.00 | 0.00 | 72 | 1014.7 |
| 20260901164320 | 88 | 292 | 1.7 | 4.3 | 0.00 | 0.00 | 0.00 | 70 | 1014.8 |
| 20260901163316 | 87 | 228 | 1.7 | 5.2 | 0.00 | 0.00 | 0.00 | 71 | 1014.8 |
| 20260901162317 | 87 | 173 | 1.7 | 3.5 | 0.00 | 0.00 | 0.00 | 71 | 1014.8 |